Time,TemperatureF,DewpointF,PressureIn,WindDirection,WindDirectionDegrees,WindSpeedMPH,WindSpeedGustMPH,Humidity,HourlyPrecipIn,Conditions,Clouds,dailyrainin,SoftwareType,DateUTC
2013-07-03 00:13:00,62.0,62.0,30.21,ESE,119,0.0,-999.0,100,-99.99,,,0.00,weatherlink.com 1.10,2013-07-03 04:13:00,
2013-07-03 00:28:00,62.0,62.0,30.20,ESE,110,0.0,-999.0,100,-99.99,,,0.00,weatherlink.com 1.10,2013-07-03 04:28:00,
2013-07-03 00:44:00,61.8,62.0,30.20,ESE,110,0.0,-999.0,100,-99.99,,,0.00,weatherlink.com 1.10,2013-07-03 04:44:00,
2013-07-03 00:58:00,61.8,62.0,30.19,ESE,110,0.0,-999.0,100,-99.99,,,0.00,weatherlink.com 1.10,2013-07-03 04:58:00,
2013-07-03 01:13:00,61.8,62.0,30.19,ESE,110,0.0,-999.0,100,-99.99,,,0.00,weatherlink.com 1.10,2013-07-03 05:13:00,
2013-07-03 01:28:00,61.8,62.0,30.18,ESE,110,0.0,-999.0,100,-99.99,,,0.00,weatherlink.com 1.10,2013-07-03 05:28:00,
2013-07-03 01:43:00,61.8,62.0,30.17,ESE,110,0.0,-999.0,100,-99.99,,,0.00,weatherlink.com 1.10,2013-07-03 05:43:00,
2013-07-03 01:58:00,61.8,62.0,30.17,ESE,110,0.0,-999.0,100,-99.99,,,0.00,weatherlink.com 1.10,2013-07-03 05:58:00,
2013-07-03 02:13:00,61.8,62.0,30.17,ESE,110,0.0,-999.0,100,-99.99,,,0.00,weatherlink.com 1.10,2013-07-03 06:13:00,
2013-07-03 02:28:00,61.8,62.0,30.17,ESE,110,0.0,-999.0,100,-99.99,,,0.00,weatherlink.com 1.10,2013-07-03 06:28:00,
2013-07-03 02:43:00,62.0,62.0,30.17,ESE,110,0.0,-999.0,100,-99.99,,,0.00,weatherlink.com 1.10,2013-07-03 06:43:00,
2013-07-03 02:58:00,62.0,62.0,30.17,ESE,110,0.0,-999.0,100,-99.99,,,0.00,weatherlink.com 1.10,2013-07-03 06:58:00,
2013-07-03 03:13:00,62.1,62.0,30.16,ESE,110,0.0,-999.0,100,-99.99,,,0.00,weatherlink.com 1.10,2013-07-03 07:13:00,
2013-07-03 03:28:00,62.1,62.0,30.17,ESE,110,0.0,-999.0,100,-99.99,,,0.00,weatherlink.com 1.10,2013-07-03 07:28:00,
2013-07-03 03:43:00,62.1,62.0,30.16,ESE,110,0.0,-999.0,100,-99.99,,,0.00,weatherlink.com 1.10,2013-07-03 07:43:00,
2013-07-03 04:13:00,62.3,62.0,30.16,ESE,110,0.0,-999.0,100,-99.99,,,0.00,weatherlink.com 1.10,2013-07-03 08:13:00,
2013-07-03 04:28:00,62.3,62.0,30.16,ESE,110,0.0,-999.0,100,-99.99,,,0.00,weatherlink.com 1.10,2013-07-03 08:28:00,
2013-07-03 04:43:00,62.3,62.0,30.16,ESE,110,0.0,-999.0,100,-99.99,,,0.00,weatherlink.com 1.10,2013-07-03 08:43:00,
2013-07-03 04:58:00,62.3,62.0,30.15,ESE,110,0.0,-999.0,100,-99.99,,,0.00,weatherlink.com 1.10,2013-07-03 08:58:00,
2013-07-03 05:13:00,62.3,62.0,30.15,ESE,110,0.0,-999.0,100,-99.99,,,0.00,weatherlink.com 1.10,2013-07-03 09:13:00,
2013-07-03 05:28:00,62.4,62.0,30.15,ESE,110,0.0,-999.0,100,-99.99,,,0.00,weatherlink.com 1.10,2013-07-03 09:28:00,
2013-07-03 05:43:00,62.4,62.0,30.16,ESE,110,0.0,-999.0,100,-99.99,,,0.00,weatherlink.com 1.10,2013-07-03 09:43:00,
2013-07-03 05:58:00,62.6,63.0,30.17,ESE,113,0.0,-999.0,100,-99.99,,,0.00,weatherlink.com 1.10,2013-07-03 09:58:00,
2013-07-03 06:13:00,62.9,63.0,30.16,ESE,113,0.0,-999.0,100,-99.99,,,0.00,weatherlink.com 1.10,2013-07-03 10:13:00,
2013-07-03 06:28:00,62.9,63.0,30.17,NNE,24,0.0,-999.0,100,-99.99,,,0.00,weatherlink.com 1.10,2013-07-03 10:28:00,
2013-07-03 06:43:00,63.1,-99.9,30.18,NNE,24,0.0,-999.0,-999,-99.99,,,0.00,weatherlink.com 1.10,2013-07-03 10:43:00,
2013-07-03 06:58:00,63.2,63.0,30.18,NNE,24,0.0,-999.0,100,-99.99,,,0.00,weatherlink.com 1.10,2013-07-03 10:58:00,
2013-07-03 07:28:00,64.5,65.0,30.18,NNE,27,0.0,-999.0,100,-99.99,,,0.00,weatherlink.com 1.10,2013-07-03 11:28:00,
2013-07-03 08:13:00,67.6,68.0,30.18,NE,55,0.0,-999.0,100,-99.99,,,0.00,weatherlink.com 1.10,2013-07-03 12:13:00,
2013-07-03 08:28:00,68.6,69.0,30.18,ENE,69,0.0,-999.0,100,-99.99,,,0.00,weatherlink.com 1.10,2013-07-03 12:28:00,
2013-07-03 08:43:00,69.8,70.0,30.18,ENE,69,0.0,-999.0,100,-99.99,,,0.00,weatherlink.com 1.10,2013-07-03 12:43:00,
2013-07-03 08:58:00,70.6,71.0,30.18,East,96,0.0,-999.0,100,-99.99,,,0.00,weatherlink.com 1.10,2013-07-03 12:58:00,
2013-07-03 09:13:00,72.7,73.0,30.18,ESE,114,0.0,-999.0,100,-99.99,,,0.00,weatherlink.com 1.10,2013-07-03 13:13:00,
2013-07-03 09:28:00,74.2,74.0,30.18,ESE,123,0.0,-999.0,98,-99.99,,,0.00,weatherlink.com 1.10,2013-07-03 13:28:00,
2013-07-03 09:43:00,76.0,73.0,30.18,ESE,114,2.0,-999.0,89,-99.99,,,0.00,weatherlink.com 1.10,2013-07-03 13:43:00,
2013-07-03 09:58:00,77.4,73.0,30.18,ESE,114,0.0,-999.0,85,-99.99,,,0.00,weatherlink.com 1.10,2013-07-03 13:58:00,
2013-07-03 10:13:00,78.8,74.0,30.17,ESE,114,0.0,-999.0,84,-99.99,,,0.00,weatherlink.com 1.10,2013-07-03 14:13:00,
2013-07-03 10:43:00,80.7,76.0,30.17,SE,138,0.0,-999.0,84,-99.99,,,0.00,weatherlink.com 1.10,2013-07-03 14:43:00,
2013-07-03 11:13:00,82.0,72.0,30.17,East,92,0.0,-999.0,72,-99.99,,,0.00,weatherlink.com 1.10,2013-07-03 15:13:00,
2013-07-03 11:28:00,82.6,72.0,30.17,SSE,162,0.0,-999.0,70,-99.99,,,0.00,weatherlink.com 1.10,2013-07-03 15:28:00,
2013-07-03 11:43:00,82.8,72.0,30.17,SSE,162,0.0,-999.0,70,-99.99,,,0.00,weatherlink.com 1.10,2013-07-03 15:43:00,
2013-07-03 11:58:00,83.6,73.0,30.17,South,185,0.0,-999.0,70,-99.99,,,0.00,weatherlink.com 1.10,2013-07-03 15:58:00,
2013-07-03 12:43:00,87.2,71.0,30.16,SSE,154,0.0,-999.0,58,-99.99,,,0.00,weatherlink.com 1.10,2013-07-03 16:43:00,
2013-07-03 12:58:00,86.5,70.0,30.16,SSE,147,0.0,-999.0,59,-99.99,,,0.00,weatherlink.com 1.10,2013-07-03 16:58:00,
2013-07-03 13:13:00,86.3,72.0,30.16,ESE,121,0.0,-999.0,62,-99.99,,,0.00,weatherlink.com 1.10,2013-07-03 17:13:00,
2013-07-03 13:28:00,87.4,70.0,30.15,NNE,32,0.0,-999.0,57,-99.99,,,0.00,weatherlink.com 1.10,2013-07-03 17:28:00,
2013-07-03 13:43:00,87.6,71.0,30.15,NE,34,0.0,-999.0,59,-99.99,,,0.00,weatherlink.com 1.10,2013-07-03 17:43:00,
2013-07-03 13:58:00,86.3,71.0,30.15,NE,34,0.0,-999.0,61,-99.99,,,0.00,weatherlink.com 1.10,2013-07-03 17:58:00,
2013-07-03 14:13:00,85.5,72.0,30.15,NE,34,0.0,-999.0,64,-99.99,,,0.00,weatherlink.com 1.10,2013-07-03 18:13:00,
2013-07-03 14:28:00,84.9,73.0,30.14,NE,34,0.0,-999.0,67,-99.99,,,0.00,weatherlink.com 1.10,2013-07-03 18:28:00,
2013-07-03 14:43:00,86.5,72.0,30.14,NNW,339,0.0,-999.0,62,-99.99,,,0.00,weatherlink.com 1.10,2013-07-03 18:43:00,
2013-07-03 14:58:00,87.8,72.0,30.14,North,10,0.0,-999.0,60,-99.99,,,0.00,weatherlink.com 1.10,2013-07-03 18:58:00,
2013-07-03 15:13:00,88.6,72.0,30.14,SSE,155,0.0,-999.0,58,-99.99,,,0.00,weatherlink.com 1.10,2013-07-03 19:13:00,
2013-07-03 15:28:00,88.2,72.0,30.13,SSE,155,0.0,-999.0,59,-99.99,,,0.00,weatherlink.com 1.10,2013-07-03 19:28:00,
2013-07-03 15:43:00,87.0,73.0,30.12,SSE,155,0.0,-999.0,64,-99.99,,,0.00,weatherlink.com 1.10,2013-07-03 19:43:00,
2013-07-03 15:58:00,87.0,75.0,30.12,SSE,155,0.0,-999.0,67,-99.99,,,0.00,weatherlink.com 1.10,2013-07-03 19:58:00,
2013-07-03 16:13:00,86.5,71.0,30.12,ESE,123,0.0,-999.0,61,-99.99,,,0.00,weatherlink.com 1.10,2013-07-03 20:13:00,
2013-07-03 16:28:00,85.9,71.0,30.12,ENE,61,0.0,-999.0,61,-99.99,,,0.00,weatherlink.com 1.10,2013-07-03 20:28:00,
2013-07-03 16:43:00,85.7,72.0,30.12,ENE,61,0.0,-999.0,64,-99.99,,,0.00,weatherlink.com 1.10,2013-07-03 20:43:00,
2013-07-03 17:14:00,85.9,72.0,30.11,ENE,62,0.0,-999.0,64,-99.99,,,0.00,weatherlink.com 1.10,2013-07-03 21:14:00,
2013-07-03 17:43:00,86.5,71.0,30.11,ENE,61,0.0,-999.0,61,-99.99,,,0.00,weatherlink.com 1.10,2013-07-03 21:43:00,
2013-07-03 17:58:00,85.9,71.0,30.11,ENE,61,0.0,-999.0,62,-99.99,,,0.00,weatherlink.com 1.10,2013-07-03 21:58:00,
2013-07-03 18:13:00,85.5,71.0,30.11,ENE,65,1.0,-999.0,63,-99.99,,,0.00,weatherlink.com 1.10,2013-07-03 22:13:00,
2013-07-03 18:28:00,84.7,71.0,30.11,North,10,0.0,-999.0,63,-99.99,,,0.00,weatherlink.com 1.10,2013-07-03 22:28:00,
2013-07-03 18:58:00,83.6,71.0,30.11,NNW,330,0.0,-999.0,66,-99.99,,,0.00,weatherlink.com 1.10,2013-07-03 22:58:00,
2013-07-03 19:43:00,82.0,71.0,30.11,NNW,332,0.0,-999.0,70,-99.99,,,0.00,weatherlink.com 1.10,2013-07-03 23:43:00,
2013-07-03 19:58:00,81.1,71.0,30.10,NNW,337,0.0,-999.0,72,-99.99,,,0.00,weatherlink.com 1.10,2013-07-03 23:58:00,
2013-07-03 20:13:00,80.3,71.0,30.11,NNW,347,0.0,-999.0,74,-99.99,,,0.00,weatherlink.com 1.10,2013-07-04 00:13:00,
2013-07-03 20:28:00,79.8,72.0,30.12,NNW,347,0.0,-999.0,77,-99.99,,,0.00,weatherlink.com 1.10,2013-07-04 00:28:00,
2013-07-03 20:43:00,78.8,73.0,30.12,NNW,347,0.0,-999.0,81,-99.99,,,0.00,weatherlink.com 1.10,2013-07-04 00:43:00,
2013-07-03 20:58:00,77.9,75.0,30.13,NNW,347,0.0,-999.0,89,-99.99,,,0.00,weatherlink.com 1.10,2013-07-04 00:58:00,
2013-07-03 21:13:00,77.2,75.0,30.13,NNW,347,0.0,-999.0,93,-99.99,,,0.00,weatherlink.com 1.10,2013-07-04 01:13:00,
2013-07-03 21:28:00,76.5,75.0,30.14,NNW,347,0.0,-999.0,96,-99.99,,,0.00,weatherlink.com 1.10,2013-07-04 01:28:00,
2013-07-03 21:43:00,76.0,75.0,30.14,NNW,347,0.0,-999.0,98,-99.99,,,0.00,weatherlink.com 1.10,2013-07-04 01:43:00,
2013-07-03 21:58:00,75.8,76.0,30.14,North,349,0.0,-999.0,99,-99.99,,,0.00,weatherlink.com 1.10,2013-07-04 01:58:00,
2013-07-03 22:13:00,75.8,76.0,30.14,North,349,0.0,-999.0,100,-99.99,,,0.00,weatherlink.com 1.10,2013-07-04 02:13:00,
2013-07-03 22:29:00,75.8,76.0,30.14,North,349,0.0,-999.0,100,-99.99,,,0.00,weatherlink.com 1.10,2013-07-04 02:29:00,
2013-07-03 22:43:00,75.8,76.0,30.14,North,349,0.0,-999.0,100,-99.99,,,0.00,weatherlink.com 1.10,2013-07-04 02:43:00,
2013-07-03 22:58:00,75.6,76.0,30.14,North,349,0.0,-999.0,100,-99.99,,,0.00,weatherlink.com 1.10,2013-07-04 02:58:00,
2013-07-03 23:13:00,75.4,75.0,30.14,North,349,0.0,-999.0,100,-99.99,,,0.00,weatherlink.com 1.10,2013-07-04 03:13:00,
2013-07-03 23:28:00,75.3,75.0,30.14,North,349,0.0,-999.0,100,-99.99,,,0.00,weatherlink.com 1.10,2013-07-04 03:28:00,
2013-07-03 23:43:00,75.1,75.0,30.14,North,349,0.0,-999.0,100,-99.99,,,0.00,weatherlink.com 1.10,2013-07-04 03:43:00,
2013-07-03 23:58:00,74.9,75.0,30.14,North,349,0.0,-999.0,100,-99.99,,,0.00,weatherlink.com 1.10,2013-07-04 03:58:00,